Regional Weather Roundup
Issued by NWS Northern Indiana

Home | Current Version | Previous Version | Graphics & Text | Print | Product List | Glossary On
Versions: 1 2 3 4 5 6 7 8 9 10 11 12 13 14 15 16 17 18 19 20 21 22 23 24 25 26 27 28 29 30 31 32 33 34 35 36 37 38 39 40 41 42 43 44 45 46 47 48 49 50
000
ASUS43 KIWX 200610
RWRIWX

KIWX WEATHER ROUNDUP
NATIONAL WEATHER SERVICE NORTHERN INDIANA
200 AM EDT FRI OCT 20 2017

NOTE: "FAIR" INDICATES FEW OR NO CLOUDS BELOW 12,000 FEET WITH NO
SIGNIFICANT WEATHER AND/OR OBSTRUCTIONS TO VISIBILITY.

* THESE STATIONS ARE NOT UNDER NWS QUALITY CONTROL. THEY ALSO MAY NOT
  REPORT WEATHER SUCH AS PRECIPITATION OR FOG.

INZ001>027-200700-
NORTHERN INDIANA

CITY           SKY/WX    TMP DP  RH WIND       PRES   REMARKS
GARY*          FAIR      56  32  39 SE7       30.17S
VALPARAISO     FAIR      49  38  65 E3        30.19S
6HR MIN TEMP:  49; 6HR MAX TEMP:  56;

MICHIGAN CITY* FAIR      45  41  87 CALM      30.18F
LAPORTE*       FAIR      44  40  88 CALM      30.19S
6HR MIN TEMP:  43; 6HR MAX TEMP:  50;

KNOX*          FAIR      46  37  71 SE3       30.19S
SOUTH BEND     FAIR      45  40  82 CALM      30.20S
6HR MIN TEMP:  44; 6HR MAX TEMP:  50;

GOSHEN         FAIR      45  39  79 CALM      30.21R
6HR MIN TEMP:  43; 6HR MAX TEMP:  54;

MONTICELLO*    FAIR      50  49  95 CALM      30.19S
6HR MIN TEMP:  50; 6HR MAX TEMP:  62;

LOGANSPORT*    FAIR      46  45  93 SE3       30.21S
WARSAW*        FAIR      43  41  93 CALM      30.21S
AUBURN*        FAIR      45  37  76 CALM      30.22S
FORT WAYNE     FAIR      49  43  80 CALM      30.22R
6HR MIN TEMP:  47; 6HR MAX TEMP:  62;

HUNTINGTON*    FAIR      48  46  95 CALM      30.22R
6HR MIN TEMP:  47; 6HR MAX TEMP:  59;

PERU/GRISSOM   FAIR      51  49  93 SE3       30.20S
6HR MIN TEMP:  51; 6HR MAX TEMP:  64;

MARION*        FAIR      48  46  93 CALM      30.22S

$$
INZ028>050-200700-
CENTRAL INDIANA

CITY           SKY/WX    TMP DP  RH WIND       PRES   REMARKS
LAFAYETTE      FAIR      52  51  97 CALM      30.19S
6HR MIN TEMP:  51; 6HR MAX TEMP:  60;

KOKOMO*        FAIR      48  46  93 SE5       30.22S
6HR MIN TEMP:  48; 6HR MAX TEMP:  60;

MUNCIE*        FAIR      49  45  86 CALM      30.22S
6HR MIN TEMP:  48; 6HR MAX TEMP:  58;

INDIANAPOLIS   FAIR      57  51  80 CALM      30.23R
6HR MIN TEMP:  56; 6HR MAX TEMP:  65;


$$
MIZ043>046-050>051-056>058-064>065-071>073-077>080-200700-
SOUTHWEST LOWER MICHIGAN

CITY           SKY/WX    TMP DP  RH WIND       PRES   REMARKS
BATTLE CREEK   FAIR      44  37  76 CALM      30.21S
6HR MIN TEMP:  41; 6HR MAX TEMP:  53;

BENTON HARBOR  FAIR      43  38  82 CALM      30.18S
6HR MIN TEMP:  41; 6HR MAX TEMP:  49;

COLDWATER*     FAIR      40  38  91 CALM      30.21S
6HR MIN TEMP:  40; 6HR MAX TEMP:  50;

HILLSDALE*     FAIR      45  32  61 CALM      30.21S
HOLLAND        FAIR      43  37  79 SE3       30.18F
6HR MIN TEMP:  43; 6HR MAX TEMP:  51;

GRAND RAPIDS   FAIR      43  38  82 SE5       30.19S
6HR MIN TEMP:  43; 6HR MAX TEMP:  54;

KALAMAZOO      FAIR      41  36  82 CALM      30.20F
6HR MIN TEMP:  41; 6HR MAX TEMP:  53;

STURGIS*       FAIR      43  35  73 CALM      30.21R
6HR MIN TEMP:  42; 6HR MAX TEMP:  50;

THREE RIVERS*  FAIR      43  39  88 CALM      30.22R
6HR MIN TEMP:  43; 6HR MAX TEMP:  51;


$$
OHZ001>008-015>018-024>025-200700-
NORTHWEST OHIO

CITY           SKY/WX    TMP DP  RH WIND       PRES   REMARKS
WAUSEON*       FAIR      41  36  81 CALM      30.21R
DEFIANCE       FAIR      44  39  82 CALM      30.21S
6HR MIN TEMP:  43; 6HR MAX TEMP:  58;

FINDLAY        FAIR      50  42  74 CALM      30.21R
6HR MIN TEMP:  49; 6HR MAX TEMP:  62;

TOLEDO EXPRESS FAIR      45  40  82 CALM      30.21R
6HR MIN TEMP:  44; 6HR MAX TEMP:  58;

TOLEDO METCALF FAIR      49  35  58 CALM      30.22R
6HR MIN TEMP:  48; 6HR MAX TEMP:  59;

LIMA           FAIR      45  45 100 CALM      30.22R
6HR MIN TEMP:  44; 6HR MAX TEMP:  61;


$$
AND FOR LAKE MICHIGAN COASTAL AND OPEN LAKE BUOY OBSERVATIONS

STATION/POSITION TEMP    WIND        PRES    VSBY  WAVE
                 AIR SEA DIR/SP/G                  HT/PER
                 (F)     (DEG/KT/KT) (MB)    (MI)  (FT/S)
CALUMET HARBOR    58     170/  6/  8 1020.4F
MICHIGAN CITY     57     130/ 11/ 12   N/A
BURNS HARBOR      61     150/  8/ 15 1021.7F
SAINT JOSEPH      53     130/  3/  6 1022.7
SOUTH LAKE BUOY   62 61  140/ 12/ 14 1020.9F         1/ 3
4 MI NW BRIDGMAN  59 58  160/  6/  8 1021.9          1
MICHIGAN CITY     59 58  160/ 10/ 12   N/A           1

$$
&&



USA.gov is the U.S. government's official web portal to all federal, state and local government web resources and services.